User: anonymous
Location: Griffin Ranch
(33.6186°N, 110.6622°W)
Time: 13:09:44
(UTC-07:00)
Language:

Cosmos 1812 - Orbit

View from above orbital plane
View from above orbital plane
View from above satellite
View from above satellite

Ground track
Ground track

The orbit data is extracted from the following two-line orbital elements,

1 17295U 87003A   14263.94516769  .00002908  00000-0  17912-3 0  4262
2 17295 082.5201 046.5783 0004381 346.4401 159.6661 15.09630270507734
Epoch (UTC): 20 September 2014 22:41:02
Eccentricity: 0.0004381
inclination: 82.5201°
perigee height: 534 km
apogee height: 540 km
right ascension of ascending node: 46.5783°
argument of perigee: 346.4401°
revolutions per day: 15.09630270
mean anomaly at epoch: 159.6661°
orbit number at epoch: 50773

The dashed part of the orbit path shows where the satellite is in the earth's shadow,  

DLR